| time (UTC) | temp F | wind direction | speed MPH | gust MPH | rain 1hr in | rain 24hr in | rain mn in | humidity % | barometer mb |
| 20260904211515 | 100 | 168 | 14.0 | 17.0 | 0.00 | 0.00 | 0.00 | 47 | 1012.3 |
| 20260904204512 | 98 | 225 | 1.0 | 2.0 | 0.00 | 0.00 | 0.00 | 49 | 1012.4 |
| 20260904201509 | 99 | 192 | 9.0 | 13.0 | 0.00 | 0.00 | 0.00 | 49 | 1012.7 |
| 20260904194509 | 100 | 141 | 7.0 | 9.0 | 0.00 | 0.00 | 0.00 | 48 | 1013.1 |
| 20260904191504 | 98 | 203 | 1.0 | 2.0 | 0.00 | 0.00 | 0.00 | 50 | 1013.4 |
| 20260904184500 | 97 | 162 | 7.0 | 9.0 | 0.00 | 0.00 | 0.00 | 51 | 1014.0 |
| 20260904181500 | 97 | 223 | 2.0 | 2.0 | 0.00 | 0.00 | 0.00 | 50 | 1014.5 |
| 20260904174456 | 95 | 252 | 5.0 | 6.0 | 0.00 | 0.00 | 0.00 | 54 | 1014.7 |
| 20260904171456 | 93 | 194 | 0.0 | 1.0 | 0.00 | 0.00 | 0.00 | 61 | 1015.2 |
| 20260904164454 | 93 | 271 | 1.0 | 1.0 | 0.00 | 0.00 | 0.00 | 63 | 1015.3 |
| 20260904161453 | 90 | 314 | 1.0 | 2.0 | 0.00 | 0.00 | 0.00 | 69 | 1015.4 |
| 20260904154449 | 87 | 197 | 3.0 | 3.0 | 0.00 | 0.00 | 0.00 | 74 | 1015.5 |
| 20260904151444 | 86 | 184 | 1.0 | 2.0 | 0.00 | 0.00 | 0.00 | 79 | 1015.3 |
| 20260904144442 | 83 | 185 | 2.0 | 2.0 | 0.00 | 0.00 | 0.00 | 85 | 1015.2 |
| 20260904141439 | 82 | 200 | 2.0 | 2.0 | 0.00 | 0.00 | 0.00 | 88 | 1015.2 |
| 20260904134436 | 81 | 289 | 0.0 | 0.0 | 0.00 | 0.00 | 0.00 | 90 | 1015.0 |
| 20260904131435 | 79 | 154 | 0.0 | 0.0 | 0.00 | 0.00 | 0.00 | 93 | 1014.7 |
| 20260904124434 | 77 | 193 | 2.0 | 3.0 | 0.00 | 0.00 | 0.00 | 95 | 1014.6 |
| 20260904121433 | 76 | 10 | 0.0 | 0.0 | 0.00 | 0.00 | 0.00 | 95 | 1014.4 |
| 20260904114433 | 76 | 294 | 0.0 | 0.0 | 0.00 | 0.00 | 0.00 | 95 | 1014.4 |
| 20260904111432 | 77 | 310 | 0.0 | 0.0 | 0.00 | 0.00 | 0.00 | 94 | 1014.2 |
| 20260904104430 | 77 | 327 | 0.0 | 0.0 | 0.00 | 0.00 | 0.00 | 92 | 1014.1 |
| 20260904101429 | 77 | 338 | 0.0 | 0.0 | 0.00 | 0.00 | 0.00 | 91 | 1013.8 |
| 20260904094428 | 78 | 176 | 0.0 | 0.0 | 0.00 | 0.00 | 0.00 | 90 | 1013.6 |
| 20260904091426 | 78 | 152 | 2.0 | 2.0 | 0.00 | 0.00 | 0.00 | 89 | 1013.8 |
| 20260904084421 | 78 | 222 | 1.0 | 1.0 | 0.00 | 0.00 | 0.00 | 88 | 1013.6 |
| 20260904081421 | 79 | 289 | 0.0 | 0.0 | 0.00 | 0.00 | 0.00 | 87 | 1013.8 |
| 20260904074421 | 79 | 183 | 0.0 | 0.0 | 0.00 | 0.00 | 0.00 | 86 | 1013.5 |
| 20260904071417 | 79 | 174 | 2.0 | 3.0 | 0.00 | 0.00 | 0.00 | 85 | 1013.6 |
| 20260904064414 | 80 | 205 | 0.0 | 1.0 | 0.00 | 0.00 | 0.00 | 84 | 1013.9 |
| 20260904061412 | 80 | 197 | 1.0 | 1.0 | 0.00 | 0.00 | 0.00 | 82 | 1013.7 |
| 20260904054409 | 80 | 198 | 1.0 | 1.0 | 0.00 | 0.00 | 0.00 | 80 | 1013.9 |
| 20260904051405 | 81 | 158 | 3.0 | 7.0 | 0.00 | 0.00 | 0.00 | 79 | 1013.7 |
| 20260904044406 | 81 | 199 | 3.0 | 3.0 | 0.00 | 0.00 | 0.00 | 78 | 1013.9 |
| 20260904041403 | 82 | 184 | 3.0 | 6.0 | 0.00 | 0.00 | 0.00 | 77 | 1013.9 |
| 20260904034404 | 82 | 178 | 3.0 | 5.0 | 0.00 | 0.00 | 0.00 | 74 | 1014.0 |
| 20260904031359 | 82 | 158 | 3.0 | 3.0 | 0.00 | 0.00 | 0.00 | 72 | 1013.9 |
| 20260904024359 | 83 | 119 | 1.0 | 1.0 | 0.00 | 0.00 | 0.00 | 71 | 1013.5 |
| 20260904021356 | 83 | 194 | 2.0 | 2.0 | 0.00 | 0.00 | 0.00 | 71 | 1013.0 |
| 20260904014352 | 84 | 75 | 1.0 | 1.0 | 0.00 | 0.00 | 0.00 | 75 | 1012.7 |
| 20260904011351 | 85 | 235 | 0.0 | 1.0 | 0.00 | 0.00 | 0.00 | 75 | 1012.5 |
| 20260904004349 | 86 | 157 | 3.0 | 3.0 | 0.00 | 0.00 | 0.00 | 69 | 1012.1 |
| 20260904001348 | 87 | 158 | 1.0 | 5.0 | 0.00 | 0.00 | 0.00 | 70 | 1012.0 |
| 20260903234346 | 88 | 103 | 1.0 | 2.0 | 0.00 | 0.00 | 0.00 | 68 | 1011.7 |
| 20260903231345 | 89 | 151 | 3.0 | 3.0 | 0.00 | 0.00 | 0.00 | 66 | 1011.7 |
| 20260903224343 | 91 | 185 | 1.0 | 1.0 | 0.00 | 0.00 | 0.00 | 63 | 1011.5 |
| 20260903221343 | 92 | 285 | 3.0 | 5.0 | 0.00 | 0.00 | 0.00 | 61 | 1011.3 |
| 20260903214343 | 91 | 202 | 4.0 | 6.0 | 0.00 | 0.00 | 0.00 | 64 | 1011.9 |